Location: Sternwarte Stuttgart
(48.7824°N, 9.1965°E)
Time: 18:04:27
(UTC+00:00)

ISS - Visible Passes

Search period start: 19 April 2025 00:00
Search period end: 29 April 2025 00:00
Orbit: 414 x 421 km, 51.6° (Epoch: 19 April)

Date Brightness Start Highest point End Pass type
(mag) Time Alt. Az. Time Alt. Az. Time Alt. Az.
21 Apr -1.7 03:17:44 10° S 03:20:18 21° SE 03:22:52 10° E visible
22 Apr -1.3 02:31:07 12° SSE 02:32:20 14° SE 02:34:04 10° ESE visible
23 Apr -3.0 03:17:41 13° SW 03:20:25 44° SSE 03:23:38 10° ENE visible
24 Apr -2.5 02:31:15 24° S 02:32:18 29° SE 02:35:15 10° E visible
25 Apr -1.7 01:44:45 19° SE 01:44:45 19° SE 01:46:41 10° E visible
25 Apr -3.8 03:17:39 13° WSW 03:20:36 86° SSE 03:23:56 10° ENE visible
26 Apr -3.7 02:31:04 33° SW 02:32:19 62° SSE 02:35:38 10° ENE visible
27 Apr -3.0 01:44:25 40° SE 01:44:25 40° SE 01:47:14 10° ENE visible
27 Apr -3.4 03:17:26 10° W 03:20:45 60° NNW 03:24:04 10° ENE visible
28 Apr -1.3 00:57:42 17° E 00:57:42 17° E 00:58:43 10° E visible
28 Apr -3.7 02:30:35 26° W 02:32:21 75° NNW 02:35:42 10° ENE visible
